Regional Weather Roundup
Issued by NWS Midland/Odessa, TX

Home | Current Version | Previous Version | Text Only | Print | Product List | Glossary On
Versions: 1 2 3 4 5 6 7 8 9 10 11 12 13 14 15 16 17 18 19 20 21 22 23 24 25 26 27 28 29 30 31 32 33 34 35 36 37 38 39 40 41 42 43 44 45 46 47 48 49 50
000
ASUS44 KMAF 221002
RWRMAF
MIDLAND AREA WEATHER ROUNDUP
NATIONAL WEATHER SERVICE MIDLAND TX
500 AM CDT WED OCT 22 2014

...IN SOUTHWEST TEXAS AND SOUTHEAST NEW MEXICO...

CITY           SKY/WX    TMP DP  RH WIND       PRES   REMARKS
ALPINE         CLOUDY    60  57  90 CALM      30.16R
ANDREWS        CLOUDY    63  58  85 S5        30.09R
ARTESIA        NOT AVBL
BIG SPRING     CLOUDY    64  57  79 E6        30.10S
CARLSBAD       CLOUDY    63  60  90 SE6       30.05F FOG
DRYDEN           N/A     65  64  97 NE10      30.02S
FORT STOCKTON  CLOUDY    59  58  96 E5        30.07S
GUAD PASS      NOT AVBL
HOBBS          MOCLDY    59  59 100 SE10      30.09F
MARFA          CLOUDY    57  55  94 CALM      30.14S
MIDLAND AIRPK  CLOUDY    67  59  75 S6        30.08S
MIDLAND INTL   CLOUDY    66  59  78 S8        30.07S
ODESSA         CLOUDY    65  59  81 S9        30.08S
PECOS          CLOUDY    59  57  94 CALM      30.04S
PRESIDIO       CLOUDY    65  60  84 NE3       30.03S
SEMINOLE       MOCLDY    61  60  95 CALM      30.10S
SNYDER         LGT RAIN  63  53  69 SE8       30.09R
WINK           CLOUDY    64  61  90 SE10      30.04S
$$
...OTHER STATIONS IN TEXAS...

CITY           SKY/WX    TMP DP  RH WIND       PRES   REMARKS
ABILENE        MOCLDY    64  48  56 SE8       30.08R
AMARILLO       CLOUDY    60  53  77 S9        30.09S
AUSTIN         MOCLDY    58  56  93 CALM      30.05S
BROWNSVILLE    LGT RAIN  73  70  90 E12       29.93S
CORPUS CHRISTI MOCLDY    69  66  90 N7        29.97S
DALLAS FTW     CLEAR     64  59  83 CALM      30.07S
DEL RIO        CLOUDY    69  67  93 E6        30.01R
EL PASO        MOCLDY    61  55  81 N5        30.06S
HOUSTON INT    PTCLDY    63  61  93 N5        30.03S
LUBBOCK        CLOUDY    62  51  67 S8        30.09S
SAN ANGELO     CLOUDY    67  49  52 CALM      30.07R
SAN ANTONIO    MOCLDY    64  53  67 CALM      30.04S
WACO           PTCLDY    60  57  89 CALM      30.07S
WICHITA FALLS  NOT AVBL
$$
...OTHER LOCATIONS IN NEW MEXICO...

CITY           SKY/WX    TMP DP  RH WIND       PRES   REMARKS
ALAMAGORDO     NOT AVBL
ALBUQUERQUE    PTCLDY    53  47  79 SE8       30.12S
CANNON AFB     CLOUDY    57  55  94 SW6       30.11S
CLOVIS         CLOUDY    57  54  88 SW6       30.13S
HOLLOMAN AFB   PTCLDY    53  50  91 NE6       30.08S
ROSWELL        MOCLDY    61  59  93 SE3       30.07F FOG
RUIDOSO        CLEAR     43  43 100 W6        30.21S WCI  39
SANTA FE       PTCLDY    49  46  90 VRB3      30.15F
TRUTH OR CONSE CLOUDY    53  50  89 W3        30.10S
TUCUMCARI      CLOUDY    62  56  80 SW7       30.06S
$$



USA.gov is the U.S. government's official web portal to all federal, state and local government web resources and services.